Location: Dana
(41.8364°N, 106.7042°W)
Time: 01:31:57
(UTC+00:00)

Transit 2A Rocket - Visible Passes

Search period start: 12 May 2026 00:00
Search period end: 22 May 2026 00:00
Orbit: 587 x 895 km, 66.7° (Epoch: 11 May)

Date Brightness Start Highest point End Pass type
(mag) Time Alt. Az. Time Alt. Az. Time Alt. Az.
12 May 5.8 03:08:20 10° SW 03:14:01 61° WNW 03:19:17 10° NNE visible
12 May 8.3 04:55:02 10° WNW 04:57:20 13° NW 04:59:35 10° NNW visible
12 May 7.9 10:10:02 10° N 10:12:50 16° NE 10:15:32 10° E visible
13 May 7.9 04:07:09 10° W 04:11:08 20° NW 04:14:56 10° N visible
13 May 5.4 11:05:31 10° NNW 11:10:01 57° NE 11:14:16 10° SE visible
14 May 7.2 03:20:06 10° WSW 03:25:05 31° NW 03:29:45 10° NNE visible
14 May 6.7 10:20:05 10° NNW 10:24:08 30° NE 10:27:58 10° ESE visible
15 May 8.5 04:21:16 10° NW 04:22:38 11° NW 04:24:00 10° NNW visible
15 May 7.6 09:34:56 10° N 09:38:04 18° NE 09:41:04 10° E visible
16 May 8.1 03:32:49 10° W 03:36:23 17° NW 03:39:47 10° N visible
16 May 8.1 08:50:40 10° NNE 08:51:50 11° NE 08:52:58 10° NE visible
16 May 4.9 10:30:37 10° NNW 10:35:08 69° ENE 10:39:25 10° SE visible
17 May 7.6 02:45:34 10° WSW 02:50:17 27° NW 02:54:42 10° N visible
17 May 6.2 09:45:06 10° NNW 09:49:17 35° NE 09:53:16 10° ESE visible
18 May 7.2 08:59:51 10° N 09:03:17 20° NE 09:06:33 10° E visible
18 May 4.7 10:41:34 10° NW 10:45:52 47° WSW 10:49:58 10° S visible
19 May 8.1 02:58:34 10° WNW 03:01:38 15° NW 03:04:35 10° N visible
19 May 7.7 08:15:11 10° NNE 08:17:05 12° NE 08:18:57 10° ENE visible
19 May 4.5 09:55:43 10° NNW 10:00:14 84° ENE 10:04:31 10° SSE visible
20 May 5.7 09:10:08 10° NNW 09:14:26 42° NE 09:18:31 10° SE visible
20 May 5.9 10:53:17 10° WNW 10:56:21 19° WSW 10:59:21 10° SSW visible
21 May 6.8 08:24:48 10° N 08:28:28 23° NE 08:31:58 10° ESE visible
21 May 5.0 10:06:48 10° NW 10:10:55 38° WSW 10:14:13 14° S visible
